EW3517 Weather Reports


Display with metric or nautical units.
time (UTC)temp
F
wind
direction
speed
MPH
gust
MPH
rain 1hr
in
rain 24hr
in
rain mn
in
humidity
%
barometer
mb
20260506170002 59 181 0.0 0.0 0.00 0.00 0.00 55 1016.2
20260506164623 59 5 0.0 0.0 0.00 0.00 0.00 55 1016.2
20260506163105 59 111 0.0 0.0 0.00 0.00 0.00 57 1016.4
20260506161555 58 135 0.0 0.0 0.00 0.00 0.00 58 1016.5
20260506160105 57 96 0.0 0.0 0.00 0.00 0.00 60 1016.1
20260506154551 55 338 0.0 0.0 0.00 0.00 0.00 62 1016.2
20260506153045 55 35 0.0 1.0 0.00 0.00 0.00 61 1016.1
20260506151542 54 20 0.0 0.0 0.00 0.00 0.00 65 1016.1
20260506150037 53 49 0.0 0.0 0.00 0.00 0.00 68 1016.0
20260506144534 52 91 0.0 0.0 0.00 0.00 0.00 73 1015.7
20260506143034 51 23 0.0 0.0 0.00 0.00 0.00 75 1015.5
20260506141530 51 25 0.0 0.0 0.00 0.00 0.00 75 1015.4
20260506140029 51 79 0.0 0.0 0.00 0.00 0.00 76 1015.5
20260506134525 50 58 0.0 0.0 0.00 0.00 0.00 79 1015.5
20260506133026 49 17 0.0 0.0 0.00 0.00 0.00 79 1015.7
20260506131532 49 5 0.0 0.0 0.00 0.00 0.00 80 1015.5
20260506130022 49 19 0.0 0.0 0.00 0.00 0.00 81 1015.3
20260506124526 49 81 0.0 0.0 0.00 0.00 0.00 82 1015.4
20260506123021 49 49 0.0 0.0 0.00 0.00 0.00 82 1014.8
20260506121517 49 124 0.0 0.0 0.00 0.00 0.00 82 1014.6
20260506120017 48 32 0.0 0.0 0.00 0.00 0.00 82 1014.1
20260506114515 48 9 0.0 0.0 0.00 0.00 0.00 82 1014.2
20260506113015 48 82 0.0 0.0 0.00 0.00 0.00 82 1014.0
20260506111514 49 341 0.0 0.0 0.00 0.00 0.00 81 1013.7
20260506110012 49 360 0.0 0.0 0.00 0.00 0.00 80 1013.5
20260506104510 49 26 0.0 0.0 0.00 0.00 0.00 79 1014.2
20260506103022 49 5 0.0 0.0 0.00 0.00 0.00 79 1014.6
20260506101507 49 23 0.0 0.0 0.00 0.00 0.00 78 1014.1
20260506100005 49 36 0.0 0.0 0.00 0.00 0.00 78 1014.1
20260506094502 49 9 0.0 0.0 0.00 0.00 0.00 78 1013.5
20260506093059 49 10 0.0 0.0 0.00 0.00 0.00 78 1013.0
20260506091558 49 49 0.0 0.0 0.00 0.00 0.00 77 1012.7
20260506090056 49 28 0.0 0.0 0.00 0.00 0.00 76 1012.6
20260506084555 49 5 0.0 0.0 0.00 0.00 0.00 75 1012.6
20260506083053 49 55 0.0 0.0 0.00 0.00 0.00 75 1012.2
20260506081552 49 5 0.0 0.0 0.00 0.00 0.00 74 1011.7
20260506073048 49 11 0.0 0.0 0.00 0.00 0.00 73 1011.2
20260506071550 50 15 0.0 0.0 0.00 0.00 0.00 73 1010.9
20260506070104 50 28 0.0 0.0 0.00 0.00 0.00 73 1010.9
20260506061540 50 14 0.0 0.0 0.00 0.00 0.00 72 1011.0
20260506044544 50 40 0.0 0.0 0.00 0.00 0.00 70 1010.8
20260506043032 50 44 0.0 0.0 0.00 0.00 0.00 72 1010.9
20260506041530 50 11 0.0 0.0 0.00 0.00 0.00 72 1010.8
20260506040028 50 11 0.0 0.0 0.00 0.00 0.00 74 1010.7
20260506034528 50 17 0.0 0.0 0.00 0.00 0.00 76 1010.6
20260506033024 49 360 0.0 0.0 0.00 0.00 0.00 79 1010.2
20260506031525 50 360 0.0 0.0 0.00 0.00 0.00 80 1009.4
20260506030024 50 28 0.0 1.0 0.00 0.00 0.00 80 1009.6
20260506024531 50 5 0.0 0.0 0.00 0.00 0.00 81 1009.8
20260506023021 50 36 0.0 0.0 0.00 0.00 0.00 81 1010.0
20260506021519 50 23 0.0 1.0 0.00 0.00 0.00 82 1009.6
20260506020017 50 13 0.0 0.0 0.00 0.00 0.00 82 1009.3
20260506014515 50 11 0.0 0.0 0.00 0.00 0.00 81 1009.2
20260506013018 50 29 0.0 0.0 0.00 0.00 0.00 80 1009.0
20260506011512 50 38 0.0 0.0 0.00 0.00 0.00 80 1008.8
20260506010011 50 22 0.0 0.0 0.00 0.00 0.00 80 1008.5
20260506004505 51 5 0.0 0.0 0.00 0.00 0.00 79 1007.8
20260506003005 51 66 0.0 0.0 0.00 0.00 0.00 79 1007.7
20260506001503 51 321 0.0 0.0 0.00 0.00 0.00 78 1007.5
20260506000002 52 22 0.0 0.0 0.00 0.00 0.00 77 1007.4
20260505234618 52 346 0.0 0.0 0.00 0.00 0.00 75 1007.2
20260505233059 52 80 0.0 0.0 0.00 0.00 0.00 74 1007.8
20260505231559 52 35 0.0 0.0 0.00 0.00 0.00 74 1007.6
20260505230054 53 5 0.0 1.0 0.00 0.00 0.00 73 1006.8
20260505224551 53 355 0.0 0.0 0.00 0.00 0.00 73 1006.9
20260505223100 53 26 0.0 0.0 0.00 0.00 0.00 73 1006.9
20260505221559 53 209 0.0 0.0 0.00 0.00 0.00 73 1006.4
20260505220057 54 19 0.0 0.0 0.00 0.00 0.00 73 1006.6
20260505214602 54 109 0.0 0.0 0.00 0.00 0.00 72 1005.9
20260505213046 55 196 0.0 0.0 0.00 0.00 0.00 72 1005.8
20260505211543 55 18 0.0 0.0 0.00 0.00 0.00 72 1006.0
20260505210043 55 63 0.0 0.0 0.00 0.00 0.00 73 1005.2
20260505204541 55 5 0.0 0.0 0.00 0.00 0.00 73 1006.2
20260505203038 55 355 0.0 0.0 0.00 0.00 0.00 73 1005.7
20260505201536 55 51 0.0 0.0 0.00 0.00 0.00 74 1005.2
20260505200037 55 34 0.0 1.0 0.00 0.00 0.00 75 1005.3
20260505194535 55 23 0.0 0.0 0.00 0.00 0.00 76 1005.4
20260505193033 55 32 0.0 0.0 0.00 0.00 0.00 78 1005.1
20260505191531 55 77 0.0 0.0 0.00 0.00 0.00 79 1004.9
20260505190031 55 40 0.0 0.0 0.00 0.00 0.00 79 1005.0
20260505184527 56 5 0.0 0.0 0.00 0.00 0.00 79 1004.8
20260505183039 56 46 0.0 0.0 0.00 0.00 0.00 77 1004.8
20260505181522 57 53 0.0 0.0 0.00 0.00 0.00 77 1004.4
20260505180120 57 106 0.0 0.0 0.00 0.00 0.00 77 1004.2
20260505174516 57 31 0.0 0.0 0.00 0.00 0.00 79 1003.8
20260505173021 57 355 0.0 0.0 0.00 0.00 0.00 79 1003.6
20260505171513 57 27 0.0 0.0 0.00 0.00 0.00 80 1003.2